Hourly Weather Russkiy

Today, 15 April, Thursday

Time Temperature Precipitation Wind Pressure Humidity
00:00 +10°C° 0 mm 2 mps 758 mmHg 91%
01:00 +9°C° 0 mm 2 mps 758 mmHg 91%
02:00 +9°C° 0 mm 2 mps 758 mmHg 90%
03:00 +8°C° 0 mm 2 mps 758 mmHg 89%
04:00 +8°C° 0 mm 2 mps 758 mmHg 89%
05:00 +8°C° 0 mm 2 mps 758 mmHg 89%
06:00 +8°C° 0 mm 2 mps 758 mmHg 89%
07:00 +9°C° 0 mm 3 mps 758 mmHg 81%
08:00 +11°C° 0 mm 3 mps 758 mmHg 73%
09:00 +13°C° 0 mm 4 mps 758 mmHg 65%
10:00 +14°C° 0 mm 4 mps 758 mmHg 60%
11:00 +17°C° 0 mm 3 mps 758 mmHg 55%
12:00 +18°C° 0 mm 3 mps 758 mmHg 50%
13:00 +18°C° 0 mm 3 mps 758 mmHg 49%
14:00 +19°C° 0 mm 4 mps 758 mmHg 48%
15:00 +19°C° 0 mm 4 mps 758 mmHg 47%
16:00 +19°C° 0 mm 3 mps 758 mmHg 51%
17:00 +18°C° 0 mm 3 mps 758 mmHg 56%
18:00 +17°C° 0 mm 2 mps 758 mmHg 61%
19:00 +16°C° 0 mm 2 mps 758 mmHg 67%
20:00 +14°C° 0 mm 2 mps 758 mmHg 73%
21:00 +12°C° 0 mm 3 mps 759 mmHg 79%
22:00 +12°C° 0 mm 2 mps 759 mmHg 80%
23:00 +12°C° 0 mm 2 mps 759 mmHg 81%

Tomorrow, 16 April, Friday

Time Temperature Precipitation Wind Pressure Humidity
00:00 +12°C° 0 mm 2 mps 758 mmHg 82%
01:00 +10°C° 0 mm 2 mps 759 mmHg 83%
02:00 +11°C° 0 mm 1 mps 759 mmHg 84%
03:00 +10°C° 0 mm 1 mps 759 mmHg 85%
04:00 +10°C° 0 mm 1 mps 759 mmHg 85%
05:00 +10°C° 0 mm 1 mps 759 mmHg 85%
06:00 +11°C° 0 mm 1 mps 759 mmHg 85%
07:00 +11°C° 0 mm 0 mps 759 mmHg 80%
08:00 +12°C° 0 mm 0 mps 760 mmHg 74%
09:00 +14°C° 0 mm 0 mps 760 mmHg 69%
10:00 +15°C° 0 mm 0 mps 760 mmHg 63%
11:00 +19°C° 0 mm 1 mps 759 mmHg 57%
12:00 +20°C° 0 mm 1 mps 759 mmHg 51%
13:00 +20°C° 0.2 mm 1 mps 759 mmHg 50%
14:00 +20°C° 0.2 mm 2 mps 759 mmHg 49%
15:00 +20°C° 0.2 mm 2 mps 758 mmHg 49%
16:00 +18°C° 0.8 mm 4 mps 759 mmHg 62%
17:00 +14°C° 0.8 mm 5 mps 759 mmHg 75%
18:00 +11°C° 0.8 mm 7 mps 759 mmHg 88%
19:00 +12°C° 4.9 mm 5 mps 759 mmHg 89%
20:00 +12°C° 4.9 mm 4 mps 760 mmHg 91%
21:00 +12°C° 4.9 mm 2 mps 760 mmHg 93%
22:00 +12°C° 0 mm 2 mps 760 mmHg 93%
23:00 +12°C° 0 mm 2 mps 760 mmHg 94%

Day after tomorrow, 17 April, Saturday

Time Temperature Precipitation Wind Pressure Humidity
00:00 +10°C° 0 mm 2 mps 760 mmHg 95%
01:00 +10°C° 0 mm 2 mps 760 mmHg 95%
02:00 +10°C° 0 mm 2 mps 759 mmHg 95%
03:00 +10°C° 0 mm 2 mps 759 mmHg 95%
04:00 +10°C° 0.2 mm 2 mps 760 mmHg 95%
05:00 +10°C° 0.2 mm 2 mps 760 mmHg 95%
06:00 +10°C° 0.2 mm 2 mps 761 mmHg 95%
07:00 +10°C° 0.3 mm 2 mps 761 mmHg 91%
08:00 +12°C° 0.3 mm 2 mps 761 mmHg 87%
09:00 +11°C° 0.3 mm 3 mps 761 mmHg 84%
10:00 +12°C° 0.1 mm 3 mps 761 mmHg 74%
11:00 +14°C° 0.1 mm 4 mps 761 mmHg 65%
12:00 +15°C° 0.1 mm 4 mps 761 mmHg 55%
13:00 +15°C° 0 mm 4 mps 761 mmHg 51%
14:00 +17°C° 0 mm 4 mps 761 mmHg 47%
15:00 +17°C° 0 mm 4 mps 761 mmHg 43%
16:00 +15°C° 0 mm 4 mps 761 mmHg 49%
17:00 +14°C° 0 mm 3 mps 761 mmHg 54%
18:00 +14°C° 0 mm 3 mps 761 mmHg 60%
19:00 +12°C° 0 mm 3 mps 761 mmHg 63%
20:00 +11°C° 0 mm 3 mps 762 mmHg 66%
21:00 +9°C° 0 mm 3 mps 762 mmHg 69%
22:00 +9°C° 0 mm 2 mps 762 mmHg 70%
23:00 +8°C° 0 mm 2 mps 762 mmHg 70%

18 April, Sunday

Time Temperature Precipitation Wind Pressure Humidity
00:00 +7°C° 0 mm 2 mps 762 mmHg 70%
01:00 +7°C° 0 mm 2 mps 762 mmHg 73%
02:00 +8°C° 0 mm 1 mps 762 mmHg 76%
03:00 +7°C° 0 mm 1 mps 761 mmHg 78%
04:00 +7°C° 0 mm 1 mps 761 mmHg 79%
05:00 +7°C° 0 mm 1 mps 761 mmHg 80%
06:00 +7°C° 0 mm 1 mps 761 mmHg 81%
07:00 +9°C° 0 mm 1 mps 761 mmHg 75%
08:00 +11°C° 0 mm 1 mps 760 mmHg 69%
09:00 +12°C° 0 mm 1 mps 760 mmHg 63%
10:00 +13°C° 0 mm 1 mps 760 mmHg 59%
11:00 +14°C° 0 mm 1 mps 759 mmHg 55%
12:00 +15°C° 0 mm 1 mps 759 mmHg 52%
13:00 +15°C° 0 mm 1 mps 759 mmHg 54%
14:00 +15°C° 0 mm 2 mps 759 mmHg 57%
15:00 +15°C° 0 mm 2 mps 759 mmHg 60%
16:00 +14°C° 0 mm 2 mps 759 mmHg 66%
17:00 +13°C° 0 mm 2 mps 759 mmHg 73%
18:00 +13°C° 0 mm 2 mps 759 mmHg 80%
19:00 +12°C° 0.1 mm 2 mps 759 mmHg 82%
20:00 +10°C° 0.1 mm 2 mps 759 mmHg 85%
21:00 +10°C° 0.1 mm 2 mps 759 mmHg 87%
22:00 +11°C° 0 mm 1 mps 758 mmHg 87%
23:00 +11°C° 0 mm 1 mps 758 mmHg 88%

19 April, Monday

Time Temperature Precipitation Wind Pressure Humidity
00:00 +11°C° 0 mm 1 mps 758 mmHg 88%
01:00 +11°C° 0 mm 1 mps 758 mmHg 88%
02:00 +10°C° 0 mm 0 mps 758 mmHg 88%
03:00 +10°C° 0 mm 0 mps 758 mmHg 88%
04:00 +11°C° 0.1 mm 1 mps 758 mmHg 89%
05:00 +11°C° 0.1 mm 1 mps 758 mmHg 89%
06:00 +10°C° 0.1 mm 2 mps 757 mmHg 89%
07:00 +10°C° 0.1 mm 2 mps 757 mmHg 88%
08:00 +12°C° 0.1 mm 2 mps 758 mmHg 87%
09:00 +12°C° 0.1 mm 2 mps 758 mmHg 86%
10:00 +12°C° 0 mm 2 mps 758 mmHg 84%
11:00 +13°C° 0 mm 2 mps 757 mmHg 82%
12:00 +13°C° 0 mm 2 mps 757 mmHg 80%
13:00 +13°C° 0 mm 2 mps 757 mmHg 80%
14:00 +14°C° 0 mm 2 mps 757 mmHg 80%
15:00 +14°C° 0 mm 2 mps 757 mmHg 81%
16:00 +13°C° 0 mm 2 mps 757 mmHg 82%
17:00 +13°C° 0 mm 2 mps 757 mmHg 83%
18:00 +13°C° 0 mm 2 mps 757 mmHg 84%
19:00 +13°C° 0 mm 2 mps 757 mmHg 85%
20:00 +12°C° 0 mm 2 mps 757 mmHg 85%
21:00 +12°C° 0 mm 2 mps 757 mmHg 86%
22:00 +10°C° 0 mm 2 mps 756 mmHg 83%
23:00 +10°C° 0 mm 3 mps 756 mmHg 80%

20 April, Tuesday

Time Temperature Precipitation Wind Pressure Humidity
00:00 +10°C° 0 mm 4 mps 756 mmHg 78%
01:00 +10°C° 0 mm 4 mps 756 mmHg 81%
02:00 +9°C° 0 mm 5 mps 756 mmHg 83%
03:00 +9°C° 0 mm 6 mps 756 mmHg 86%
04:00 +8°C° 0.1 mm 7 mps 756 mmHg 87%
05:00 +6°C° 0.1 mm 8 mps 756 mmHg 88%
06:00 +6°C° 0.1 mm 9 mps 756 mmHg 88%
07:00 +5°C° 0.3 mm 9 mps 755 mmHg 88%
08:00 +5°C° 0.3 mm 9 mps 755 mmHg 88%
09:00 +3°C° 0.3 mm 10 mps 755 mmHg 87%
10:00 +5°C° 0 mm 10 mps 754 mmHg 84%
11:00 +6°C° 0 mm 11 mps 754 mmHg 82%
12:00 +6°C° 0 mm 11 mps 754 mmHg 79%
13:00 +6°C° 1 mm 11 mps 754 mmHg 80%
14:00 +6°C° 1 mm 10 mps 754 mmHg 81%
15:00 +6°C° 1 mm 10 mps 754 mmHg 83%
16:00 +5°C° 4.4 mm 10 mps 754 mmHg 86%
17:00 +5°C° 4.4 mm 10 mps 755 mmHg 89%
18:00 +5°C° 4.4 mm 10 mps 755 mmHg 92%
19:00 +5°C° 1.5 mm 10 mps 756 mmHg 92%
20:00 +5°C° 1.5 mm 9 mps 756 mmHg 92%
21:00 +3°C° 1.5 mm 9 mps 757 mmHg 92%
22:00 +3°C° 0.5 mm 9 mps 757 mmHg 92%
23:00 +3°C° 0.5 mm 9 mps 758 mmHg 91%
Show more